(339027) = 2004 HU29

Discovered at Socorro on 2004-04-21 by LINEAR.

Orbit

Orbit type: Main Belt

Note: WebGL enabled browser required.

epoch2023-09-13.0
epoch JD2460200.5
perihelion date2023-04-12.83126
perihelion JD2460047.33126
argument of perihelion (°)12.64809
ascending node (°)270.13450
inclination (°)2.59971
eccentricity0.2081199
perihelion distance (AU)1.8919282
Tisserand w.r.t. Jupiter3.5
ΔV w.r.t. Earth (km/sec)8.6
semimajor axis (AU)2.3891600
mean anomaly (°)40.87955
mean daily motion (°/day)0.26689230
aphelion distance (AU)2.886
period (years)3.69
P-vector [x]0.22102676
P-vector [y]-0.89869485
P-vector [z]-0.37880700
Q-vector [x]0.97421242
Q-vector [y]0.18538819
Q-vector [z]0.12861327
absolute magnitude17.42
phase slope0.15
uncertainty0
referenceMPO 779415
observations used330
oppositions14
arc length (days)8111
first opposition used2001
last opposition used2023
residual rms (arc-secs)0.72
perturbers coarse indicatorM-v
perturbers precise indicator003Ek
first observation date used2001-08-27.0
last observation date used2023-11-11.0
computer nameMPCLINUX
JD of orbit computation2456670.734936
perihelion JD uncertainty (days)1.0536E-04
argument of perihelion uncertainty (°)2.4117E-04
ascending node uncertainty (°)2.3989E-04
inclination uncertainty (°)7.1366E-06
eccentricity uncertainty 6.5940E-08
perihelion distance uncertainty (AU)1.4813E-07
Minimum Orbit Intersection Distances (in AU)
for orbit epoch: 2460200.5, reference: E2023-VL1
Mercury1.43532
Venus1.16509
Earth0.87493
Mars0.43919
Jupiter2.25571
Saturn6.1738
Uranus15.7615
Neptune27.1544

Observations

341 total observations over interval: 2001 08 27.36932 – 2023 11 11.243818
These data are available for download (format description).

Date (UT) J2000 RA J2000 Dec Magn Location Ref
2001 08 27.36932 00 45 56.96 +09 40 12.5 20.8   644 – Palomar Mountain/NEAT MPS 178467
2001 08 27.37995 00 45 56.67 +09 40 11.6 20.3   644 – Palomar Mountain/NEAT MPS 178467
2001 08 27.39223 00 45 56.32 +09 40 10.5 20.3   644 – Palomar Mountain/NEAT MPS 178467
2001 09 20.31893 00 28 30.97 +08 11 48.6 18.8   704 – Lincoln Laboratory ETS, New Mexico MPS 178467
2001 09 20.33314 00 28 30.13 +08 11 43.6 20.4   704 – Lincoln Laboratory ETS, New Mexico MPS 178467
2001 09 20.35122 00 28 29.14 +08 11 37.2 20.2   704 – Lincoln Laboratory ETS, New Mexico MPS 178467
2001 09 20.36540 00 28 28.25 +08 11 32.6 19.6   704 – Lincoln Laboratory ETS, New Mexico MPS 178467
2001 09 20.37960 00 28 27.41 +08 11 27.3 19.9   704 – Lincoln Laboratory ETS, New Mexico MPS 178467
2001 10 18.19234 00 04 21.23 +05 14 51.6 21   644 – Palomar Mountain/NEAT MPS 178467
2001 10 18.21304 00 04 20.36 +05 14 43.7   644 – Palomar Mountain/NEAT MPS 178467
2001 10 18.23417 00 04 19.51 +05 14 36.5   644 – Palomar Mountain/NEAT MPS 178467
2004 04 12.31123 14 00 34.22 -16 48 01.2 18.9   644 – Palomar Mountain/NEAT MPS 106326
2004 04 12.33215 14 00 33.02 -16 47 55.8 19.0   644 – Palomar Mountain/NEAT MPS 106326
2004 04 12.36252 14 00 31.34 -16 47 46.5 18.8   644 – Palomar Mountain/NEAT MPS 106326
2004 04 21.31284 13 52 11.47 -16 00 35.8 19.2   704 – Lincoln Laboratory ETS, New Mexico MPS 105298
2004 04 21.33418 13 52 10.21 -16 00 28.2 19.8   704 – Lincoln Laboratory ETS, New Mexico MPS 105298
2004 04 21.34510 13 52 09.53 -16 00 23.5 19.7   704 – Lincoln Laboratory ETS, New Mexico MPS 105298
2004 04 22.25319 13 51 17.46 -15 55 04.5 19.6 V 691 – Steward Observatory, Kitt Peak-Spacewatch MPS 105298
2004 04 22.28195 13 51 15.71 -15 54 54.5 19.5 V 691 – Steward Observatory, Kitt Peak-Spacewatch MPS 105298
2004 04 22.30854 13 51 14.11 -15 54 45.1 19.4 V 691 – Steward Observatory, Kitt Peak-Spacewatch MPS 105298
2004 04 27.24167 13 46 30.85 -15 24 42.7 19.3   704 – Lincoln Laboratory ETS, New Mexico MPS 106326
2004 04 27.24332 13 46 30.77 -15 24 40.7 19.1   704 – Lincoln Laboratory ETS, New Mexico MPS 106326
2004 04 27.25190 13 46 30.34 -15 24 37.5 19.5   704 – Lincoln Laboratory ETS, New Mexico MPS 106326
2004 04 27.25368 13 46 30.24 -15 24 37.5 19.4   704 – Lincoln Laboratory ETS, New Mexico MPS 106326
2004 04 27.26230 13 46 29.64 -15 24 34.3 19.5   704 – Lincoln Laboratory ETS, New Mexico MPS 106326
2004 04 27.26403 13 46 29.58 -15 24 33.9 19.1   704 – Lincoln Laboratory ETS, New Mexico MPS 106326
2004 04 27.27258 13 46 29.01 -15 24 29.7 19.6   704 – Lincoln Laboratory ETS, New Mexico MPS 106326
2004 04 27.27439 13 46 29.02 -15 24 29.8 18.9   704 – Lincoln Laboratory ETS, New Mexico MPS 106326
2004 04 27.28288 13 46 28.47 -15 24 26.5 19.6   704 – Lincoln Laboratory ETS, New Mexico MPS 106326
2004 04 27.28478 13 46 28.35 -15 24 25.0 19.4   704 – Lincoln Laboratory ETS, New Mexico MPS 106326
2005 10 26.22003 03 03 08.40 +20 28 34.6 21.2 V 691 – Steward Observatory, Kitt Peak-Spacewatch MPS 147481
2005 10 26.23737 03 03 07.33 +20 28 29.6 20.6 V 691 – Steward Observatory, Kitt Peak-Spacewatch MPS 147481
2005 10 26.25473 03 03 06.25 +20 28 25.7 20.8 V 691 – Steward Observatory, Kitt Peak-Spacewatch MPS 147481
2005 10 27.25484 03 02 05.91 +20 23 56.1 20.8 V 691 – Steward Observatory, Kitt Peak-Spacewatch MPS 147481
2005 10 27.27220 03 02 04.82 +20 23 51.2 20.8 V 691 – Steward Observatory, Kitt Peak-Spacewatch MPS 147481
2005 10 27.28955 03 02 03.74 +20 23 46.5 20.7 V 691 – Steward Observatory, Kitt Peak-Spacewatch MPS 147481
2005 11 04.23607 02 53 47.21 +19 44 44.5 20.7 V 691 – Steward Observatory, Kitt Peak-Spacewatch MPS 149534
2005 11 04.26108 02 53 45.55 +19 44 36.4 20.7 V 691 – Steward Observatory, Kitt Peak-Spacewatch MPS 149534
2005 11 04.28602 02 53 43.92 +19 44 28.7 20.6 V 691 – Steward Observatory, Kitt Peak-Spacewatch MPS 149534
2009 11 25.45286 05 05 20.12 +24 04 03.0 21.4 V 291 – LPL/Spacewatch II MPS 304852
2009 11 25.45686 05 05 19.83 +24 04 02.3 21.6 V 291 – LPL/Spacewatch II MPS 304852
2009 11 25.46102 05 05 19.62 +24 04 01.9 21.6 V 291 – LPL/Spacewatch II MPS 304852
2011 02 26.30603 10 41 41.10 +04 01 03.1 19.8 V G96 – Mt. Lemmon Survey MPS 371979
2011 02 26.31295 10 41 40.74 +04 01 06.3 20.0 V G96 – Mt. Lemmon Survey MPS 371979
2011 02 26.31993 10 41 40.27 +04 01 08.5 20.2 V G96 – Mt. Lemmon Survey MPS 371979
2011 02 26.32689 10 41 39.87 +04 01 10.5 20.0 V G96 – Mt. Lemmon Survey MPS 371979
2012 08 10.37440 23 59 22.49 +04 31 08.4 20.4 V 691 – Steward Observatory, Kitt Peak-Spacewatch MPS 430065
2012 08 10.39214 23 59 22.16 +04 31 09.0 20.4 V 691 – Steward Observatory, Kitt Peak-Spacewatch MPS 430065
2012 08 10.40986 23 59 21.84 +04 31 09.7 20.3 V 691 – Steward Observatory, Kitt Peak-Spacewatch MPS 430065
2012 09 14.27524 23 34 59.77 +02 35 32.7 19.8 V 703 – Catalina Sky Survey MPS 431323
2012 09 14.28406 23 34 59.26 +02 35 29.0 19.7 V 703 – Catalina Sky Survey MPS 431323
2012 09 14.29294 23 34 58.72 +02 35 25.9 19.2 V 703 – Catalina Sky Survey MPS 431323
2012 09 14.30184 23 34 58.18 +02 35 23.5 19.4 V 703 – Catalina Sky Survey MPS 431323
2012 09 16.15712 23 33 15.32 +02 24 10.5 19.6 V 691 – Steward Observatory, Kitt Peak-Spacewatch MPS 431873
2012 09 16.17506 23 33 14.29 +02 24 05.4 19.4 V 691 – Steward Observatory, Kitt Peak-Spacewatch MPS 431873
2012 09 16.19301 23 33 13.26 +02 23 57.4 19.4 V 691 – Steward Observatory, Kitt Peak-Spacewatch MPS 431873
2012 10 08.10024 23 16 17.55 +00 15 52.2 20.5 V 691 – Steward Observatory, Kitt Peak-Spacewatch MPS 434107
2012 10 08.14177 23 16 16.13 +00 15 39.8 20.3 V 691 – Steward Observatory, Kitt Peak-Spacewatch MPS 434107
2012 10 08.17066 23 16 15.11 +00 15 31.3 20.3 V 691 – Steward Observatory, Kitt Peak-Spacewatch MPS 434107
2013 12 26.37632 06 47 22.406 +22 24 27.65 21.4 w F51 – Pan-STARRS 1, Haleakala MPS 493337
2013 12 26.39174 06 47 21.379 +22 24 27.97 21.5 w F51 – Pan-STARRS 1, Haleakala MPS 493337
2015 01 26.60144 13 16 43.073 -11 31 52.09 21.8 w F51 – Pan-STARRS 1, Haleakala MPS 569428
2015 01 26.61339 13 16 43.556 -11 31 56.25 21.8 w F51 – Pan-STARRS 1, Haleakala MPS 569428
2015 03 16.34877 13 21 42.35 -13 11 47.8 20.4 V 691 – Steward Observatory, Kitt Peak-Spacewatch MPS 591992
2015 03 16.36768 13 21 41.72 -13 11 44.8 20.5 V 691 – Steward Observatory, Kitt Peak-Spacewatch MPS 591992
2015 03 16.38661 13 21 41.00 -13 11 41.6 20.3 V 691 – Steward Observatory, Kitt Peak-Spacewatch MPS 591992
2015 03 24.38612 13 16 13.63 -12 47 13.0 20.1 r G45 – Space Surveillance Telescope, Atom Site MPS 600502
2015 03 24.39515 13 16 13.22 -12 47 11.0 21.0 r G45 – Space Surveillance Telescope, Atom Site MPS 600502
2015 03 24.41229 13 16 12.45 -12 47 06.0 20.2 r G45 – Space Surveillance Telescope, Atom Site MPS 600502
2015 03 24.42001 13 16 12.03 -12 47 04.2 19.2 r G45 – Space Surveillance Telescope, Atom Site MPS 600502
2015 03 25.38367 13 15 26.69 -12 43 19.3 20.3 r G45 – Space Surveillance Telescope, Atom Site MPS 600502
2015 03 25.39267 13 15 26.22 -12 43 16.4 20.0 r G45 – Space Surveillance Telescope, Atom Site MPS 600502
2015 03 25.40876 13 15 25.39 -12 43 13.2 20.3 r G45 – Space Surveillance Telescope, Atom Site MPS 600502
2015 03 25.41658 13 15 25.06 -12 43 11.1 19.9 r G45 – Space Surveillance Telescope, Atom Site MPS 600502
2015 03 25.43793 13 15 23.92 -12 43 05.6 20.2 r G45 – Space Surveillance Telescope, Atom Site MPS 600502
2015 03 29.32093 13 12 10.42 -12 26 11.1 20.2 V 691 – Steward Observatory, Kitt Peak-Spacewatch MPS 597549
2015 03 29.33982 13 12 09.43 -12 26 06.7 19.8 V 691 – Steward Observatory, Kitt Peak-Spacewatch MPS 597549
2015 03 29.35872 13 12 08.38 -12 26 01.0 20.2 V 691 – Steward Observatory, Kitt Peak-Spacewatch MPS 597549
2015 03 29.48817 13 12 01.643 -12 25 23.49 19.8 i F51 – Pan-STARRS 1, Haleakala MPS 597549
2015 03 29.49110 13 12 01.486 -12 25 22.49 19.8 i F51 – Pan-STARRS 1, Haleakala MPS 597549
2015 03 29.50036 13 12 00.976 -12 25 19.89 19.7 i F51 – Pan-STARRS 1, Haleakala MPS 597549
2015 03 29.50299 13 12 00.832 -12 25 19.33 19.7 i F51 – Pan-STARRS 1, Haleakala MPS 597549
2015 03 29.51226 13 12 00.327 -12 25 16.57 19.5 i F51 – Pan-STARRS 1, Haleakala MPS 597549
